Regional Weather Roundup
Issued by NWS Charleston, WV

Home | Current Version | Previous Version | Graphics & Text | Print | Product List | Glossary On
Versions: 1 2 3 4 5 6 7 8 9 10 11 12 13 14 15 16 17 18 19 20 21 22 23 24 25 26 27 28 29 30 31 32 33 34 35 36 37 38 39 40 41 42 43 44 45 46 47 48 49 50
000
ASUS41 KRLX 180710
RWRRLX
West Virginia Regional Weather Roundup
National Weather Service Charleston WV
200 AM EST WED JAN 18 2017

Note: "fair" indicates few or no clouds below 12,000 feet with no
significant weather and/or obstructions to visibility.

WVZ003-180800-
Northern Panhandle of West Virginia

CITY           SKY/WX    TMP DP  RH WIND       PRES   REMARKS
WHEELING       CLOUDY    47  40  76 W13G24    29.94R
$$

WVZ009-180800-
Northwest West Virginia

CITY           SKY/WX    TMP DP  RH WIND       PRES   REMARKS
PARKERSBURG    CLOUDY    48  39  71 W8        30.02R
$$

WVZ006-180800-
Western West Virginia

CITY           SKY/WX    TMP DP  RH WIND       PRES   REMARKS
HUNTINGTON     CLOUDY    49  40  71 W10G18    30.04R
$$

WVZ015-180800-
West Central West Virginia

CITY           SKY/WX    TMP DP  RH WIND       PRES   REMARKS
CHARLESTON     MOCLDY    52  43  71 NW13G18   30.00R
$$

WVZ022-031-180800-
North Central West Virginia

CITY           SKY/WX    TMP DP  RH WIND       PRES   REMARKS
CLARKSBURG     CLOUDY    50  43  77 NW12      29.96R
MORGANTOWN     CLOUDY    51  41  68 W9G23     29.94S
$$

WVZ025-035-042-045-180800-
Southern West Virginia

CITY           SKY/WX    TMP DP  RH WIND       PRES   REMARKS
BECKLEY        PTCLDY    50  42  74 W10       29.99S
LOGAN          CLOUDY    52  46  82 W12G18    30.01S
BLUEFIELD      CLOUDY    52  48  86 W16G25    30.00S
LEWISBURG      CLOUDY    53  43  70 W7        29.97R
$$

WVZ047-180800-
Northern Mountains of West Virginia

CITY           SKY/WX    TMP DP  RH WIND       PRES   REMARKS
ELKINS         CLOUDY    53  43  68 W15G23    29.94S
$$

WVZ052-180800-
Eastern Panhandle of West Virginia

CITY           SKY/WX    TMP DP  RH WIND       PRES   REMARKS
MARTINSBURG    FOG       40  39  97 N6        29.89R VSB 1/4
PETERSBURG     PTCLDY    61  46  58 W13G21    29.87R
$$



USA.gov is the U.S. government's official web portal to all federal, state and local government web resources and services.